Location: Gleizolles
(44.4833°N, 6.7667°E)
Time: 12:33:40
(UTC+00:00)

Envisat - Pass Details

Date: 08 December 2021
Orbit: 764 x 766 km, 98.2° (Epoch: 20 January)

Event Time Altitude Azimuth Distance (km) Brightness Sun altitude
Rises 04:42:42 0° 12° (NNE) 3,243 6.3 -23.0°
Reaches altitude 10° 04:45:01 10° 12° (NNE) 2,312 5.5 -22.6°
Maximum altitude 04:50:07 84° 285° (WNW) 775 2.9 -21.7°
Drops below altitude 10° 04:55:11 10° 198° (SSW) 2,294 5.4 -20.8°
Sets 04:57:28 0° 197° (SSW) 3,216 6.2 -20.4°
